When you browse on this site, cookies collect data to enhance your experience and personalize the content and advertising you see.
Visit our Privacy Policy to learn more. By continuing to use the site, you agree to this use of cookies and data.
  • In Hungary
  • List of Countries
  • For 7 days
  • Water Temperature
  • Weather Map
  • News
  • Weather Widgets
  • user-avatar
    Login

    Hourly Weather Tarija

    Today, 28 May, Thursday

    Time Temperature Precipitation Wind Pressure Humidity
    00:00 +14°C° 0 mm 1 mps 596 mmHg 48%
    01:00 +14°C° 0 mm 1 mps 596 mmHg 46%
    02:00 +14°C° 0 mm 1 mps 595 mmHg 45%
    03:00 +14°C° 0 mm 1 mps 595 mmHg 46%
    04:00 +14°C° 0 mm 1 mps 595 mmHg 46%
    05:00 +13°C° 0 mm 1 mps 595 mmHg 47%
    06:00 +15°C° 0 mm 1 mps 596 mmHg 45%
    07:00 +16°C° 0 mm 1 mps 597 mmHg 44%
    08:00 +18°C° 0 mm 1 mps 598 mmHg 43%
    09:00 +20°C° 0 mm 1 mps 598 mmHg 37%
    10:00 +23°C° 0 mm 1 mps 599 mmHg 31%
    11:00 +25°C° 0 mm 1 mps 600 mmHg 24%
    12:00 +25°C° 0 mm 2 mps 600 mmHg 24%
    13:00 +26°C° 0 mm 2 mps 599 mmHg 23%
    14:00 +27°C° 0 mm 2 mps 599 mmHg 22%
    15:00 +25°C° 0 mm 2 mps 598 mmHg 29%
    16:00 +24°C° 0 mm 2 mps 597 mmHg 36%
    17:00 +21°C° 0 mm 2 mps 597 mmHg 43%
    18:00 +19°C° 0 mm 2 mps 596 mmHg 51%
    19:00 +18°C° 0 mm 1 mps 596 mmHg 58%
    20:00 +15°C° 0 mm 1 mps 596 mmHg 66%
    21:00 +14°C° 0 mm 1 mps 596 mmHg 66%
    22:00 +13°C° 0 mm 0 mps 596 mmHg 65%
    23:00 +12°C° 0 mm 0 mps 596 mmHg 65%

    Tomorrow, 29 May, Friday

    Time Temperature Precipitation Wind Pressure Humidity
    00:00 +13°C° 0 mm 1 mps 595 mmHg 63%
    01:00 +13°C° 0 mm 1 mps 595 mmHg 60%
    02:00 +13°C° 0 mm 1 mps 595 mmHg 58%
    03:00 +13°C° 0 mm 1 mps 595 mmHg 55%
    04:00 +13°C° 0 mm 1 mps 595 mmHg 52%
    05:00 +13°C° 0 mm 1 mps 595 mmHg 49%
    06:00 +14°C° 0 mm 1 mps 596 mmHg 46%
    07:00 +15°C° 0 mm 1 mps 597 mmHg 44%
    08:00 +18°C° 0 mm 1 mps 598 mmHg 41%
    09:00 +20°C° 0 mm 1 mps 599 mmHg 34%
    10:00 +21°C° 0 mm 2 mps 600 mmHg 26%
    11:00 +25°C° 0 mm 2 mps 600 mmHg 19%
    12:00 +25°C° 0 mm 2 mps 600 mmHg 19%
    13:00 +26°C° 0 mm 2 mps 599 mmHg 18%
    14:00 +27°C° 0 mm 2 mps 599 mmHg 18%
    15:00 +25°C° 0 mm 2 mps 598 mmHg 26%
    16:00 +24°C° 0 mm 2 mps 598 mmHg 34%
    17:00 +23°C° 0 mm 2 mps 597 mmHg 42%
    18:00 +19°C° 0 mm 2 mps 597 mmHg 51%
    19:00 +18°C° 0 mm 1 mps 596 mmHg 59%
    20:00 +15°C° 0 mm 1 mps 596 mmHg 68%
    21:00 +15°C° 0 mm 1 mps 596 mmHg 67%
    22:00 +14°C° 0 mm 1 mps 595 mmHg 66%
    23:00 +14°C° 0 mm 1 mps 595 mmHg 66%

    Day after tomorrow, 30 May, Saturday

    Time Temperature Precipitation Wind Pressure Humidity
    00:00 +13°C° 0 mm 1 mps 595 mmHg 64%
    01:00 +13°C° 0 mm 1 mps 595 mmHg 62%
    02:00 +13°C° 0 mm 1 mps 595 mmHg 60%
    03:00 +13°C° 0 mm 1 mps 594 mmHg 58%
    04:00 +13°C° 0 mm 1 mps 594 mmHg 56%
    05:00 +13°C° 0 mm 1 mps 594 mmHg 54%
    06:00 +14°C° 0 mm 1 mps 595 mmHg 51%
    07:00 +16°C° 0 mm 1 mps 596 mmHg 48%
    08:00 +18°C° 0 mm 1 mps 597 mmHg 45%
    09:00 +21°C° 0 mm 1 mps 598 mmHg 37%
    10:00 +23°C° 0 mm 1 mps 598 mmHg 30%
    11:00 +25°C° 0 mm 1 mps 599 mmHg 23%
    12:00 +26°C° 0 mm 1 mps 598 mmHg 21%
    13:00 +27°C° 0 mm 2 mps 598 mmHg 20%
    14:00 +28°C° 0 mm 2 mps 598 mmHg 19%
    15:00 +26°C° 0 mm 2 mps 597 mmHg 27%
    16:00 +25°C° 0 mm 2 mps 596 mmHg 35%
    17:00 +24°C° 0 mm 2 mps 595 mmHg 43%
    18:00 +20°C° 0 mm 2 mps 595 mmHg 52%
    19:00 +19°C° 0 mm 1 mps 594 mmHg 60%
    20:00 +16°C° 0 mm 1 mps 594 mmHg 69%
    21:00 +16°C° 0 mm 1 mps 594 mmHg 69%
    22:00 +15°C° 0 mm 1 mps 594 mmHg 68%
    23:00 +15°C° 0 mm 1 mps 594 mmHg 68%

    31 May, Sunday

    Time Temperature Precipitation Wind Pressure Humidity
    00:00 +15°C° 0 mm 1 mps 594 mmHg 66%
    01:00 +15°C° 0 mm 1 mps 594 mmHg 63%
    02:00 +14°C° 0 mm 1 mps 594 mmHg 61%
    03:00 +14°C° 0 mm 2 mps 595 mmHg 60%
    04:00 +14°C° 0 mm 2 mps 595 mmHg 59%
    05:00 +13°C° 0 mm 3 mps 595 mmHg 59%
    06:00 +13°C° 0 mm 3 mps 595 mmHg 58%
    07:00 +14°C° 0 mm 3 mps 596 mmHg 57%
    08:00 +14°C° 0 mm 3 mps 597 mmHg 57%
    09:00 +18°C° 0 mm 4 mps 598 mmHg 47%
    10:00 +21°C° 0 mm 5 mps 599 mmHg 37%
    11:00 +23°C° 0 mm 6 mps 600 mmHg 27%
    12:00 +24°C° 0 mm 7 mps 599 mmHg 27%
    13:00 +24°C° 0 mm 7 mps 599 mmHg 27%
    14:00 +26°C° 0 mm 8 mps 598 mmHg 27%
    15:00 +23°C° 0 mm 7 mps 598 mmHg 36%
    16:00 +20°C° 0 mm 7 mps 597 mmHg 45%
    17:00 +17°C° 0 mm 6 mps 596 mmHg 54%
    18:00 +16°C° 0 mm 5 mps 596 mmHg 60%
    19:00 +15°C° 0 mm 5 mps 596 mmHg 66%
    20:00 +13°C° 0 mm 4 mps 597 mmHg 72%
    21:00 +13°C° 0 mm 4 mps 597 mmHg 72%
    22:00 +13°C° 0 mm 4 mps 597 mmHg 73%
    23:00 +12°C° 0 mm 5 mps 597 mmHg 73%

    1 June, Monday

    Time Temperature Precipitation Wind Pressure Humidity
    00:00 +12°C° 0 mm 4 mps 597 mmHg 72%
    01:00 +12°C° 0 mm 4 mps 597 mmHg 72%
    02:00 +11°C° 0 mm 4 mps 597 mmHg 71%
    03:00 +11°C° 0 mm 4 mps 597 mmHg 72%
    04:00 +10°C° 0 mm 3 mps 597 mmHg 73%
    05:00 +10°C° 0 mm 3 mps 596 mmHg 74%
    06:00 +10°C° 0 mm 3 mps 597 mmHg 71%
    07:00 +11°C° 0 mm 3 mps 598 mmHg 68%
    08:00 +11°C° 0 mm 4 mps 598 mmHg 64%
    09:00 +13°C° 0 mm 4 mps 599 mmHg 54%
    10:00 +15°C° 0 mm 5 mps 600 mmHg 44%
    11:00 +17°C° 0 mm 6 mps 600 mmHg 34%
    12:00 +19°C° 0 mm 6 mps 600 mmHg 33%
    13:00 +19°C° 0 mm 6 mps 599 mmHg 32%
    14:00 +20°C° 0 mm 6 mps 599 mmHg 30%
    15:00 +17°C° 0 mm 6 mps 598 mmHg 36%
    16:00 +16°C° 0 mm 5 mps 597 mmHg 41%
    17:00 +14°C° 0 mm 4 mps 597 mmHg 46%
    18:00 +12°C° 0 mm 3 mps 596 mmHg 52%
    19:00 +10°C° 0 mm 2 mps 596 mmHg 59%
    20:00 +8°C° 0 mm 2 mps 596 mmHg 65%
    21:00 +8°C° 0 mm 2 mps 596 mmHg 65%
    22:00 +8°C° 0 mm 2 mps 596 mmHg 64%
    23:00 +8°C° 0 mm 1 mps 596 mmHg 64%

    2 June, Tuesday

    Time Temperature Precipitation Wind Pressure Humidity
    00:00 +8°C° 0 mm 1 mps 596 mmHg 64%
    01:00 +8°C° 0 mm 1 mps 596 mmHg 64%
    02:00 +7°C° 0 mm 1 mps 595 mmHg 65%
    03:00 +7°C° 0 mm 1 mps 595 mmHg 63%
    04:00 +7°C° 0 mm 1 mps 595 mmHg 62%
    05:00 +7°C° 0 mm 1 mps 595 mmHg 61%
    06:00 +8°C° 0 mm 1 mps 596 mmHg 56%
    07:00 +9°C° 0 mm 1 mps 597 mmHg 52%
    08:00 +11°C° 0 mm 1 mps 598 mmHg 47%
    09:00 +13°C° 0 mm 2 mps 598 mmHg 41%
    10:00 +15°C° 0 mm 2 mps 599 mmHg 34%
    11:00 +17°C° 0 mm 2 mps 599 mmHg 28%
    12:00 +18°C° 0 mm 3 mps 599 mmHg 27%
    13:00 +19°C° 0 mm 3 mps 598 mmHg 26%
    14:00 +20°C° 0 mm 3 mps 597 mmHg 25%
    15:00 +19°C° 0 mm 3 mps 597 mmHg 31%
    16:00 +18°C° 0 mm 4 mps 596 mmHg 37%
    17:00 +15°C° 0 mm 4 mps 595 mmHg 43%
    18:00 +13°C° 0 mm 3 mps 595 mmHg 53%
    19:00 +12°C° 0 mm 2 mps 594 mmHg 63%
    20:00 +9°C° 0 mm 1 mps 594 mmHg 72%
    21:00 +9°C° 0 mm 1 mps 594 mmHg 75%
    22:00 +8°C° 0 mm 1 mps 594 mmHg 77%
    23:00 +8°C° 0 mm 1 mps 595 mmHg 79%
    Show more